Weather Roundup
Issued by NWS

Home | Current Version | Previous Version | Graphics & Text | Print | Product List | Glossary Off
Versions: 1 2 3 4 5 6 7 8 9 10 11 12 13 14 15 16 17 18 19 20 21 22 23 24 25 26 27 28 29 30 31 32 33 34 35 36 37 38 39 40 41 42 43 44 45 46 47 48 49 50

000
NZUS93 KARX 270559
HRRWXR

CURRENT HOURLY OBSERVATIONS ACROSS
MUCH OF THE UPPER MISSISSIPPI VALLEY
NATIONAL WEATHER SERVICE LA CROSSE WI
100 AM CDT WED AUG 27 2014


...SOUTHEAST MINNESOTA...


CITY           SKY/WX    TMP DP  RH WIND       PRES   REMARKS
ROCHESTER      MOCLDY    61  55  81 NW5       30.20R
ROCHESTER/MAYO CLOUDY    63  56  80 NW5       30.19R
WINONA         MOCLDY    61  57  88 CALM      30.18R
AUSTIN         FAIR      57  55  94 CALM      30.18S
ALBERT LEA     FAIR      57  57 100 CALM      30.19S
DODGE CENTER   CLOUDY    61  59  94 CALM      30.19S
PRESTON        MOCLDY    59  59 100 CALM      30.19S
OWATONNA       FAIR      61  57  88 CALM      30.19S
FARIBAULT      FAIR      64  57  77 CALM      30.19S
$$

...ELSEWHERE IN MINNESOTA...


CITY           SKY/WX    TMP DP  RH WIND       PRES   REMARKS
MINNEAPOLIS    LGT RAIN  65  57  75 NE7       30.19S
INTNL FALLS    FAIR      40  39  97 CALM      30.17S
DULUTH         LGT RAIN  55  49  80 N5        30.19R
RED WING       CLOUDY    63  57  82 NW3       30.18R
REDWOOD FALLS  CLOUDY    63  58  83 E3        30.18F
MANKATO        CLOUDY    63  55  77 CALM      30.19R
WORTHINGTON    FAIR      57  55  94 CALM      30.20S
FAIRMONT       FAIR      55  52  88 N5        30.18F
$$

...SOUTHWEST WISCONSIN...


CITY           SKY/WX    TMP DP  RH WIND       PRES   REMARKS
LA CROSSE      FAIR      65  59  81 N3        30.16R
PRAIRIE DU CHI MOCLDY    66  60  80 CALM      30.15R
BOSCOBEL       MOCLDY    65  62  90 CALM      30.15S
LONE ROCK      NOT AVBL
PLATTEVILLE    FAIR      65  62  89 N5        30.16S
FORT MC COY    FAIR      60  58  92 CALM      30.18R
VIROQUA        MOCLDY    62  58  88 CALM      30.17S
WIS DELLS      MOCLDY    64  55  74 CALM      30.15S
$$

...ELSEWHERE IN WISCONSIN...


CITY           SKY/WX    TMP DP  RH WIND       PRES   REMARKS
MILWAUKEE      MOCLDY    67  58  72 N5        30.12S
MADISON        LGT RAIN  64  58  80 NW3       30.14S
GREEN BAY      FAIR      61  56  83 N8        30.15R
EAU CLAIRE     NOT AVBL
BLACK RVR FLS  FAIR      58  58 100 CALM      30.17R
MEDFORD        FAIR      56  55  94 CALM      30.17S
WAUSAU         FAIR      59  55  87 NW3       30.15S
WIS RAPIDS     FAIR      62  55  77 NW3       30.17S
MARSHFIELD     FAIR      59  55  87 N8        30.17R
RICE LAKE      RAIN      60  56  85 NW5       30.21R
$$

...NORTHEAST IOWA...


CITY           SKY/WX    TMP DP  RH WIND       PRES   REMARKS
WATERLOO       FAIR      66  61  84 NE3       30.15S
DUBUQUE        FAIR      66  61  84 N7        30.16R
DECORAH        CLOUDY    63  61  94 N3        30.17R
MASON CITY     FAIR      59  58  96 N5        30.19S
CHARLES CITY   CLOUDY    63  59  88 NE5       30.18S
OELWEIN        CLOUDY    66  63  88 N3        30.18R
$$

...ELSEWHERE IN IOWA...


CITY           SKY/WX    TMP DP  RH WIND       PRES   REMARKS
DES MOINES     MOCLDY    72  65  78 NE7       30.13S
IOWA CITY      FAIR      72  65  78 N3        30.15R
FORT DODGE     FAIR      63  61  94 NE3       30.17S
MARSHALLTOWN   FAIR      66  62  87 N6        30.15S
CEDAR RAPIDS   CLOUDY    69  65  86 CALM      30.15R
$$

...NORTHERN ILLINOIS...


CITY           SKY/WX    TMP DP  RH WIND       PRES   REMARKS
CHICAGO-OHARE  MOCLDY    72  63  73 NE7       30.10F
DUPAGE         FAIR      69  63  81 N5        30.11F
CHICAGO-MIDWAY MOCLDY    73  66  78 NE3       30.11S
MOLINE         FAIR      69  65  86 CALM      30.13R
ROCKFORD       MOCLDY    69  61  75 NE6       30.14R
STERLING       FAIR      70  64  83 CALM      30.12S
PEORIA         FAIR      77  71  82 CALM      30.10S
$$

NOTE: "FAIR" INDICATES FEW OR NO CLOUDS BELOW 12,000 FEET WITH NO
SIGNIFICANT WEATHER AND/OR OBSTRUCTIONS TO VISIBILITY. WIND
SPEEDS ARE IN MILES-PER-HOUR.



USA.gov is the U.S. government's official web portal to all federal, state and local government web resources and services.